Time,TemperatureF,DewpointF,PressureIn,WindDirection,WindDirectionDegrees,WindSpeedMPH,WindSpeedGustMPH,Humidity,HourlyPrecipIn,Conditions,Clouds,dailyrainin,SoftwareType,DateUTC
2013-10-09 00:00:00,57.6,48.2,30.01,SSE,153,3.1,5.4,71,0.00,,,0.00,VWS V14.00,2013-10-09 05:00:00,
2013-10-09 00:01:00,57.6,48.2,30.01,SE,138,4.9,4.9,71,0.00,,,0.00,VWS V14.00,2013-10-09 05:01:00,
2013-10-09 00:02:00,57.6,48.2,30.01,SSW,207,0.0,4.9,71,0.00,,,0.00,VWS V14.00,2013-10-09 05:02:00,
2013-10-09 00:03:00,57.6,48.2,30.01,East,95,4.9,4.9,71,0.00,,,0.00,VWS V14.00,2013-10-09 05:03:00,
2013-10-09 00:04:00,57.6,48.2,30.01,SSW,198,2.2,4.9,71,0.00,,,0.00,VWS V14.00,2013-10-09 05:04:00,
2013-10-09 00:05:00,57.6,48.2,29.99,SE,144,3.1,3.6,71,0.00,,,0.00,VWS V14.00,2013-10-09 05:05:00,
2013-10-09 00:06:00,57.6,48.2,29.98,SSE,150,3.1,3.1,71,0.00,,,0.00,VWS V14.00,2013-10-09 05:06:00,
2013-10-09 00:07:00,57.6,48.2,29.99,East,87,3.1,4.0,71,0.00,,,0.00,VWS V14.00,2013-10-09 05:07:00,
2013-10-09 00:08:00,57.6,48.2,29.99,SSE,148,4.0,4.0,71,0.00,,,0.00,VWS V14.00,2013-10-09 05:08:00,
2013-10-09 00:09:00,57.6,48.2,29.99,SE,145,3.6,6.3,71,0.00,,,0.00,VWS V14.00,2013-10-09 05:09:00,
2013-10-09 00:10:00,57.6,48.2,29.99,SE,146,2.7,5.8,71,0.00,,,0.00,VWS V14.00,2013-10-09 05:10:00,
2013-10-09 00:11:00,57.6,48.2,29.99,SSE,161,4.9,4.9,71,0.00,,,0.00,VWS V14.00,2013-10-09 05:11:00,
2013-10-09 00:12:00,57.6,48.2,29.98,ENE,67,4.0,4.9,71,0.00,,,0.00,VWS V14.00,2013-10-09 05:12:00,
2013-10-09 00:13:00,57.6,48.2,29.99,SSE,150,6.3,6.3,71,0.00,,,0.00,VWS V14.00,2013-10-09 05:13:00,
2013-10-09 00:14:00,57.6,48.2,29.99,SE,129,4.0,6.3,71,0.00,,,0.00,VWS V14.00,2013-10-09 05:14:00,
2013-10-09 00:15:00,57.6,48.2,29.99,SE,146,3.1,4.0,71,0.00,,,0.00,VWS V14.00,2013-10-09 05:15:00,
2013-10-09 00:16:00,57.6,48.2,29.99,ESE,117,4.9,5.8,71,0.00,,,0.00,VWS V14.00,2013-10-09 05:16:00,
2013-10-09 00:17:00,57.6,48.2,29.98,East,95,4.0,4.9,71,0.00,,,0.00,VWS V14.00,2013-10-09 05:17:00,
2013-10-09 00:18:00,57.6,48.2,29.99,SE,140,5.4,5.8,71,0.00,,,0.00,VWS V14.00,2013-10-09 05:18:00,
2013-10-09 00:19:00,57.7,48.4,29.99,ESE,108,6.3,6.3,71,0.00,,,0.00,VWS V14.00,2013-10-09 05:19:00,
2013-10-09 00:20:00,57.6,48.2,29.99,SSE,160,2.7,6.3,71,0.00,,,0.00,VWS V14.00,2013-10-09 05:20:00,
2013-10-09 00:21:00,57.6,48.2,29.99,SE,137,2.7,5.8,71,0.00,,,0.00,VWS V14.00,2013-10-09 05:21:00,
2013-10-09 00:22:00,57.6,48.2,29.99,SE,126,5.4,5.4,71,0.00,,,0.00,VWS V14.00,2013-10-09 05:22:00,
2013-10-09 00:23:00,57.6,48.2,29.98,ESE,111,6.3,6.3,71,0.00,,,0.00,VWS V14.00,2013-10-09 05:23:00,
2013-10-09 00:24:00,57.6,48.2,29.99,SE,140,4.0,6.3,71,0.00,,,0.00,VWS V14.00,2013-10-09 05:24:00,
2013-10-09 00:25:00,57.6,48.2,29.99,SE,125,5.4,5.4,71,0.00,,,0.00,VWS V14.00,2013-10-09 05:25:00,
2013-10-09 00:26:00,57.6,48.2,29.99,SE,137,4.0,5.4,71,0.00,,,0.00,VWS V14.00,2013-10-09 05:26:00,
2013-10-09 00:27:00,57.4,48.1,29.99,SE,138,4.0,4.0,71,0.00,,,0.00,VWS V14.00,2013-10-09 05:27:00,
2013-10-09 00:28:00,57.4,48.1,29.99,SE,138,2.2,4.9,71,0.00,,,0.00,VWS V14.00,2013-10-09 05:28:00,
2013-10-09 00:29:00,57.4,48.4,29.98,East,101,3.6,8.3,72,0.00,,,0.00,VWS V14.00,2013-10-09 05:29:00,
2013-10-09 00:30:00,57.4,48.4,29.99,ENE,60,3.1,4.5,72,0.00,,,0.00,VWS V14.00,2013-10-09 05:30:00,
2013-10-09 00:31:00,57.4,48.4,29.99,East,93,4.0,5.4,72,0.00,,,0.00,VWS V14.00,2013-10-09 05:31:00,
2013-10-09 00:32:00,57.2,48.3,29.99,ESE,117,4.0,4.0,72,0.00,,,0.00,VWS V14.00,2013-10-09 05:32:00,
2013-10-09 00:33:00,57.2,48.3,29.99,SSE,160,3.6,4.0,72,0.00,,,0.00,VWS V14.00,2013-10-09 05:33:00,
2013-10-09 00:34:00,57.2,48.3,29.98,SSE,162,3.1,3.6,72,0.00,,,0.00,VWS V14.00,2013-10-09 05:34:00,
2013-10-09 00:35:00,57.0,48.1,29.99,SSE,152,5.8,5.8,72,0.00,,,0.00,VWS V14.00,2013-10-09 05:35:00,
2013-10-09 00:36:00,57.0,48.1,29.99,SE,126,5.8,5.8,72,0.00,,,0.00,VWS V14.00,2013-10-09 05:36:00,
2013-10-09 00:37:00,57.0,48.1,29.99,SE,146,4.0,5.8,72,0.00,,,0.00,VWS V14.00,2013-10-09 05:37:00,
2013-10-09 00:38:00,57.0,48.1,29.99,SE,137,2.2,4.0,72,0.00,,,0.00,VWS V14.00,2013-10-09 05:38:00,
2013-10-09 00:39:00,57.0,48.1,29.99,ESE,106,2.7,3.6,72,0.00,,,0.00,VWS V14.00,2013-10-09 05:39:00,
2013-10-09 00:40:00,56.8,47.9,29.98,ESE,108,5.8,5.8,72,0.00,,,0.00,VWS V14.00,2013-10-09 05:40:00,
2013-10-09 00:41:00,56.8,48.3,29.99,SE,140,2.2,5.8,73,0.00,,,0.00,VWS V14.00,2013-10-09 05:41:00,
2013-10-09 00:42:00,56.8,48.3,29.99,East,94,2.2,3.6,73,0.00,,,0.00,VWS V14.00,2013-10-09 05:42:00,
2013-10-09 00:43:00,56.8,48.3,29.99,SSE,152,0.0,3.6,73,0.00,,,0.00,VWS V14.00,2013-10-09 05:43:00,
2013-10-09 00:44:00,56.8,48.3,29.99,East,92,3.1,3.1,73,0.00,,,0.00,VWS V14.00,2013-10-09 05:44:00,
2013-10-09 00:45:00,56.7,48.1,29.99,ESE,111,3.1,4.0,73,0.00,,,0.00,VWS V14.00,2013-10-09 05:45:00,
2013-10-09 00:46:00,56.7,48.1,29.98,SSE,156,0.0,3.6,73,0.00,,,0.00,VWS V14.00,2013-10-09 05:46:00,
2013-10-09 00:47:00,56.7,48.1,29.99,SSE,155,0.0,2.2,73,0.00,,,0.00,VWS V14.00,2013-10-09 05:47:00,
2013-10-09 00:48:00,56.7,48.1,29.99,ENE,75,3.6,3.6,73,0.00,,,0.00,VWS V14.00,2013-10-09 05:48:00,
2013-10-09 00:49:00,56.5,47.9,29.99,SE,125,3.1,3.6,73,0.00,,,0.00,VWS V14.00,2013-10-09 05:49:00,
2013-10-09 00:50:00,56.5,47.9,30.01,SE,136,0.0,4.9,73,0.00,,,0.00,VWS V14.00,2013-10-09 05:50:00,
2013-10-09 00:51:00,56.5,47.9,30.01,SE,136,0.0,2.7,73,0.00,,,0.00,VWS V14.00,2013-10-09 05:51:00,
2013-10-09 00:52:00,56.5,47.9,30.01,SE,136,0.0,0.0,73,0.00,,,0.00,VWS V14.00,2013-10-09 05:52:00,
2013-10-09 00:53:00,56.3,47.8,30.01,SE,136,0.0,0.0,73,0.00,,,0.00,VWS V14.00,2013-10-09 05:53:00,
2013-10-09 00:54:00,56.3,47.8,30.01,SE,136,0.0,0.0,73,0.00,,,0.00,VWS V14.00,2013-10-09 05:54:00,
2013-10-09 00:55:00,56.3,48.1,30.01,SE,136,0.0,2.7,74,0.00,,,0.00,VWS V14.00,2013-10-09 05:55:00,
2013-10-09 00:56:00,56.3,48.1,30.01,SE,144,0.0,0.0,74,0.00,,,0.00,VWS V14.00,2013-10-09 05:56:00,
2013-10-09 00:57:00,56.1,48.0,30.01,SE,146,3.1,4.0,74,0.00,,,0.00,VWS V14.00,2013-10-09 05:57:00,
2013-10-09 00:58:00,56.1,48.0,30.01,ESE,122,2.7,4.0,74,0.00,,,0.00,VWS V14.00,2013-10-09 05:58:00,
2013-10-09 00:59:00,56.1,48.0,30.01,SSE,168,3.1,4.5,74,0.00,,,0.00,VWS V14.00,2013-10-09 05:59:00,
2013-10-09 01:00:00,56.1,48.0,30.01,SSE,168,0.0,3.1,74,0.00,,,0.00,VWS V14.00,2013-10-09 06:00:00,
2013-10-09 01:01:00,56.1,48.0,30.01,SE,124,2.7,3.6,74,0.00,,,0.00,VWS V14.00,2013-10-09 06:01:00,
2013-10-09 01:02:00,56.1,48.0,30.01,SE,131,2.2,2.7,74,0.00,,,0.00,VWS V14.00,2013-10-09 06:02:00,
2013-10-09 01:03:00,55.9,47.8,30.01,ESE,120,4.9,4.9,74,0.00,,,0.00,VWS V14.00,2013-10-09 06:03:00,
2013-10-09 01:04:00,55.9,47.8,30.01,SSE,152,3.6,4.9,74,0.00,,,0.00,VWS V14.00,2013-10-09 06:04:00,
2013-10-09 01:05:00,55.9,47.8,30.01,ESE,113,3.1,3.6,74,0.00,,,0.00,VWS V14.00,2013-10-09 06:05:00,
2013-10-09 01:06:00,55.9,47.8,30.01,SE,130,3.6,4.0,74,0.00,,,0.00,VWS V14.00,2013-10-09 06:06:00,
2013-10-09 01:07:00,55.9,48.1,30.01,SSE,150,2.2,4.0,75,0.00,,,0.00,VWS V14.00,2013-10-09 06:07:00,
2013-10-09 01:08:00,55.9,48.1,30.01,SSE,160,0.0,4.0,75,0.00,,,0.00,VWS V14.00,2013-10-09 06:08:00,
2013-10-09 01:09:00,55.9,48.1,30.01,SSE,160,0.0,4.0,75,0.00,,,0.00,VWS V14.00,2013-10-09 06:09:00,
2013-10-09 01:10:00,55.9,48.1,30.01,SSE,158,4.0,4.0,75,0.00,,,0.00,VWS V14.00,2013-10-09 06:10:00,
2013-10-09 01:11:00,55.9,48.1,30.01,SSE,163,0.0,4.0,75,0.00,,,0.00,VWS V14.00,2013-10-09 06:11:00,
2013-10-09 01:12:00,55.9,48.1,30.01,SE,137,3.1,3.1,75,0.00,,,0.00,VWS V14.00,2013-10-09 06:12:00,
2013-10-09 01:13:00,55.9,48.1,30.01,SSE,150,5.4,5.4,75,0.00,,,0.00,VWS V14.00,2013-10-09 06:13:00,
2013-10-09 01:14:00,55.9,48.1,30.01,SSE,151,3.6,6.3,75,0.00,,,0.00,VWS V14.00,2013-10-09 06:14:00,
2013-10-09 01:15:00,55.9,48.1,30.01,SSW,192,2.7,4.9,75,0.00,,,0.00,VWS V14.00,2013-10-09 06:15:00,
2013-10-09 01:16:00,55.9,48.1,30.01,SSE,154,4.0,4.0,75,0.00,,,0.00,VWS V14.00,2013-10-09 06:16:00,
2013-10-09 01:17:00,55.9,48.1,30.01,SSE,156,2.2,4.0,75,0.00,,,0.00,VWS V14.00,2013-10-09 06:17:00,
2013-10-09 01:18:00,55.8,48.0,30.01,SE,143,3.6,4.9,75,0.00,,,0.00,VWS V14.00,2013-10-09 06:18:00,
2013-10-09 01:19:00,55.8,48.3,30.01,South,175,2.7,3.6,76,0.00,,,0.00,VWS V14.00,2013-10-09 06:19:00,
2013-10-09 01:20:00,55.8,48.3,30.01,SSE,158,2.7,3.6,76,0.00,,,0.00,VWS V14.00,2013-10-09 06:20:00,
2013-10-09 01:21:00,55.8,48.3,30.01,SE,146,4.9,5.4,76,0.00,,,0.00,VWS V14.00,2013-10-09 06:21:00,
2013-10-09 01:22:00,55.8,48.3,30.01,SSE,156,3.1,4.9,76,0.00,,,0.00,VWS V14.00,2013-10-09 06:22:00,
2013-10-09 01:23:00,55.8,48.3,30.01,SE,126,5.4,5.4,76,0.00,,,0.00,VWS V14.00,2013-10-09 06:23:00,
2013-10-09 01:24:00,55.8,48.3,30.01,SSE,147,5.4,5.4,76,0.00,,,0.00,VWS V14.00,2013-10-09 06:24:00,
2013-10-09 01:25:00,55.8,48.3,30.01,ESE,108,4.0,5.4,76,0.00,,,0.00,VWS V14.00,2013-10-09 06:25:00,
2013-10-09 01:26:00,55.8,48.3,30.01,ESE,109,5.8,5.8,76,0.00,,,0.00,VWS V14.00,2013-10-09 06:26:00,
2013-10-09 01:27:00,55.8,48.3,30.01,SE,128,3.1,5.8,76,0.00,,,0.00,VWS V14.00,2013-10-09 06:27:00,
2013-10-09 01:28:00,55.6,48.2,30.01,East,94,3.6,3.6,76,0.00,,,0.00,VWS V14.00,2013-10-09 06:28:00,
2013-10-09 01:29:00,55.6,48.2,30.01,SSE,147,4.9,4.9,76,0.00,,,0.00,VWS V14.00,2013-10-09 06:29:00,
2013-10-09 01:30:00,55.6,48.2,30.01,SSE,155,3.1,5.4,76,0.00,,,0.00,VWS V14.00,2013-10-09 06:30:00,
2013-10-09 01:31:00,55.6,48.2,30.01,South,176,2.7,4.0,76,0.00,,,0.00,VWS V14.00,2013-10-09 06:31:00,
2013-10-09 01:32:00,55.6,48.2,30.01,South,176,2.7,3.1,76,0.00,,,0.00,VWS V14.00,2013-10-09 06:32:00,
2013-10-09 01:33:00,55.6,48.2,30.01,South,171,0.0,2.7,76,0.00,,,0.00,VWS V14.00,2013-10-09 06:33:00,
2013-10-09 01:34:00,55.6,48.2,30.01,SE,128,5.8,5.8,76,0.00,,,0.00,VWS V14.00,2013-10-09 06:34:00,
2013-10-09 01:35:00,55.4,48.0,29.99,SSE,154,3.6,5.8,76,0.00,,,0.00,VWS V14.00,2013-10-09 06:35:00,
2013-10-09 01:36:00,55.4,48.3,29.99,SSE,150,3.6,5.8,77,0.00,,,0.00,VWS V14.00,2013-10-09 06:36:00,
2013-10-09 01:37:00,55.4,48.3,29.99,SE,128,5.4,5.4,77,0.00,,,0.00,VWS V14.00,2013-10-09 06:37:00,
2013-10-09 01:38:00,55.4,48.3,29.99,SE,137,5.4,5.4,77,0.00,,,0.00,VWS V14.00,2013-10-09 06:38:00,
2013-10-09 01:39:00,55.6,48.5,29.98,South,169,4.0,5.8,77,0.00,,,0.00,VWS V14.00,2013-10-09 06:39:00,
2013-10-09 01:40:00,55.6,48.5,29.99,SSE,149,3.6,5.4,77,0.00,,,0.00,VWS V14.00,2013-10-09 06:40:00,
2013-10-09 01:41:00,55.6,48.5,29.99,SSE,155,4.0,4.0,77,0.00,,,0.00,VWS V14.00,2013-10-09 06:41:00,
2013-10-09 01:42:00,55.6,48.5,29.99,SSE,156,3.1,4.9,77,0.00,,,0.00,VWS V14.00,2013-10-09 06:42:00,
2013-10-09 01:43:00,55.6,48.5,29.99,SSE,148,3.1,5.8,77,0.00,,,0.00,VWS V14.00,2013-10-09 06:43:00,
2013-10-09 01:44:00,55.4,48.3,29.99,SE,124,3.6,3.6,77,0.00,,,0.00,VWS V14.00,2013-10-09 06:44:00,
2013-10-09 01:45:00,55.4,48.3,29.98,South,186,4.0,4.9,77,0.00,,,0.00,VWS V14.00,2013-10-09 06:45:00,
2013-10-09 01:46:00,55.4,48.3,29.99,South,170,2.7,4.0,77,0.00,,,0.00,VWS V14.00,2013-10-09 06:46:00,
2013-10-09 01:47:00,55.4,48.3,29.99,SSE,167,2.2,3.1,77,0.00,,,0.00,VWS V14.00,2013-10-09 06:47:00,
2013-10-09 01:48:00,55.4,48.3,29.99,SSW,200,4.0,4.9,77,0.00,,,0.00,VWS V14.00,2013-10-09 06:48:00,
2013-10-09 01:49:00,55.4,48.3,29.99,SE,138,4.0,4.0,77,0.00,,,0.00,VWS V14.00,2013-10-09 06:49:00,
2013-10-09 01:50:00,55.2,48.5,29.98,SE,144,6.3,6.3,78,0.00,,,0.00,VWS V14.00,2013-10-09 06:50:00,
2013-10-09 01:51:00,55.4,48.3,30.01,SW,216,0.0,7.6,77,0.00,,,0.00,VWS V14.00,2013-10-09 06:51:00,
2013-10-09 01:52:00,55.4,48.7,30.01,SE,142,3.6,5.8,78,0.00,,,0.00,VWS V14.00,2013-10-09 06:52:00,
2013-10-09 01:53:00,55.4,48.7,30.01,SSW,212,5.4,5.4,78,0.00,,,0.00,VWS V14.00,2013-10-09 06:53:00,
2013-10-09 01:54:00,55.4,48.7,30.01,South,187,3.6,5.4,78,0.00,,,0.00,VWS V14.00,2013-10-09 06:54:00,
2013-10-09 01:55:00,55.4,48.7,30.01,South,190,6.7,6.7,78,0.00,,,0.00,VWS V14.00,2013-10-09 06:55:00,
2013-10-09 01:56:00,55.4,48.7,30.01,SSW,210,2.7,6.7,78,0.00,,,0.00,VWS V14.00,2013-10-09 06:56:00,
2013-10-09 01:57:00,55.4,48.7,30.01,SSW,193,0.0,2.7,78,0.00,,,0.00,VWS V14.00,2013-10-09 06:57:00,
2013-10-09 01:58:00,55.2,48.5,30.01,ESE,118,2.7,3.6,78,0.00,,,0.00,VWS V14.00,2013-10-09 06:58:00,
2013-10-09 01:59:00,55.2,48.5,30.01,SSE,159,3.1,3.1,78,0.00,,,0.00,VWS V14.00,2013-10-09 06:59:00,
2013-10-09 02:00:00,55.2,48.5,30.01,SE,127,6.7,7.6,78,0.00,,,0.00,VWS V14.00,2013-10-09 07:00:00,
2013-10-09 02:01:00,55.2,48.5,30.01,South,169,6.3,7.6,78,0.00,,,0.00,VWS V14.00,2013-10-09 07:01:00,
2013-10-09 02:02:00,55.2,48.5,30.01,SE,132,8.1,8.1,78,0.00,,,0.00,VWS V14.00,2013-10-09 07:02:00,
2013-10-09 02:03:00,55.2,48.5,30.01,SSW,203,4.0,8.1,78,0.00,,,0.00,VWS V14.00,2013-10-09 07:03:00,
2013-10-09 02:04:00,55.2,48.5,30.01,SE,131,3.6,4.0,78,0.00,,,0.00,VWS V14.00,2013-10-09 07:04:00,
2013-10-09 02:05:00,55.2,48.8,30.01,SSE,166,4.0,5.8,79,0.00,,,0.00,VWS V14.00,2013-10-09 07:05:00,
2013-10-09 02:06:00,55.2,48.8,30.01,SE,142,0.0,4.0,79,0.00,,,0.00,VWS V14.00,2013-10-09 07:06:00,
2013-10-09 02:07:00,55.2,48.8,30.01,SSE,161,4.9,5.4,79,0.00,,,0.00,VWS V14.00,2013-10-09 07:07:00,
2013-10-09 02:08:00,55.2,48.8,30.01,SE,137,4.9,6.7,79,0.00,,,0.00,VWS V14.00,2013-10-09 07:08:00,
2013-10-09 02:09:00,55.2,48.8,30.01,SSE,153,5.4,5.4,79,0.00,,,0.00,VWS V14.00,2013-10-09 07:09:00,
2013-10-09 02:10:00,55.2,48.8,30.01,SE,133,4.0,6.3,79,0.00,,,0.00,VWS V14.00,2013-10-09 07:10:00,
2013-10-09 02:11:00,55.2,48.8,30.01,SSE,147,6.3,7.6,79,0.00,,,0.00,VWS V14.00,2013-10-09 07:11:00,
2013-10-09 02:12:00,55.2,48.8,30.01,SSE,168,4.9,6.3,79,0.00,,,0.00,VWS V14.00,2013-10-09 07:12:00,
2013-10-09 02:13:00,55.2,48.8,30.01,SSW,199,5.8,8.3,79,0.00,,,0.00,VWS V14.00,2013-10-09 07:13:00,
2013-10-09 02:14:00,55.2,48.8,30.01,SSE,157,5.8,7.2,79,0.00,,,0.00,VWS V14.00,2013-10-09 07:14:00,
2013-10-09 02:15:00,55.2,48.8,30.01,SSE,164,3.1,5.8,79,0.00,,,0.00,VWS V14.00,2013-10-09 07:15:00,
2013-10-09 02:16:00,55.2,48.8,30.01,SSE,162,4.5,5.4,79,0.00,,,0.00,VWS V14.00,2013-10-09 07:16:00,
2013-10-09 02:17:00,55.2,48.8,30.01,ESE,122,4.9,5.4,79,0.00,,,0.00,VWS V14.00,2013-10-09 07:17:00,
2013-10-09 02:18:00,55.2,48.8,30.01,SSE,166,8.1,10.5,79,0.00,,,0.00,VWS V14.00,2013-10-09 07:18:00,
2013-10-09 02:19:00,55.2,48.8,30.01,SE,125,5.4,8.1,79,0.00,,,0.00,VWS V14.00,2013-10-09 07:19:00,
2013-10-09 02:20:00,55.2,48.8,30.01,SSE,157,4.9,8.3,79,0.00,,,0.00,VWS V14.00,2013-10-09 07:20:00,
2013-10-09 02:21:00,55.2,48.8,30.01,SSE,159,4.0,4.9,79,0.00,,,0.00,VWS V14.00,2013-10-09 07:21:00,
2013-10-09 02:22:00,55.2,48.8,30.01,ESE,113,4.9,7.6,79,0.00,,,0.00,VWS V14.00,2013-10-09 07:22:00,
2013-10-09 02:23:00,55.2,48.8,30.01,South,169,7.6,7.6,79,0.00,,,0.00,VWS V14.00,2013-10-09 07:23:00,
2013-10-09 02:24:00,55.2,48.8,30.01,SSE,163,3.6,7.6,79,0.00,,,0.00,VWS V14.00,2013-10-09 07:24:00,
2013-10-09 02:25:00,55.0,48.7,30.01,SE,126,5.8,5.8,79,0.00,,,0.00,VWS V14.00,2013-10-09 07:25:00,
2013-10-09 02:26:00,55.0,48.7,30.01,SSE,147,8.3,8.3,79,0.00,,,0.00,VWS V14.00,2013-10-09 07:26:00,
2013-10-09 02:27:00,55.0,48.7,30.01,SE,146,6.3,8.3,79,0.00,,,0.00,VWS V14.00,2013-10-09 07:27:00,
2013-10-09 02:28:00,55.0,48.7,30.01,ESE,118,6.3,6.3,79,0.00,,,0.00,VWS V14.00,2013-10-09 07:28:00,
2013-10-09 02:29:00,55.0,48.7,30.01,SE,138,6.3,8.7,79,0.00,,,0.00,VWS V14.00,2013-10-09 07:29:00,
2013-10-09 02:30:00,55.0,48.7,30.01,South,178,6.3,6.3,79,0.00,,,0.00,VWS V14.00,2013-10-09 07:30:00,
2013-10-09 02:31:00,55.0,48.7,30.01,SE,139,3.1,6.3,79,0.00,,,0.00,VWS V14.00,2013-10-09 07:31:00,
2013-10-09 02:32:00,54.9,48.5,30.01,SSE,152,5.8,7.6,79,0.00,,,0.00,VWS V14.00,2013-10-09 07:32:00,
2013-10-09 02:33:00,54.9,48.5,30.01,SSE,149,3.6,6.3,79,0.00,,,0.00,VWS V14.00,2013-10-09 07:33:00,
2013-10-09 02:34:00,54.9,48.5,30.01,SE,128,4.9,6.3,79,0.00,,,0.00,VWS V14.00,2013-10-09 07:34:00,
2013-10-09 02:35:00,54.9,48.5,30.01,SE,142,4.0,4.9,79,0.00,,,0.00,VWS V14.00,2013-10-09 07:35:00,
2013-10-09 02:36:00,54.7,48.3,30.01,South,181,3.6,5.8,79,0.00,,,0.00,VWS V14.00,2013-10-09 07:36:00,
2013-10-09 02:37:00,54.7,48.3,30.01,SE,124,4.9,5.8,79,0.00,,,0.00,VWS V14.00,2013-10-09 07:37:00,
2013-10-09 02:38:00,54.7,48.3,30.01,ESE,115,3.6,4.9,79,0.00,,,0.00,VWS V14.00,2013-10-09 07:38:00,
2013-10-09 02:39:00,54.7,48.3,30.01,SSE,157,4.0,4.0,79,0.00,,,0.00,VWS V14.00,2013-10-09 07:39:00,
2013-10-09 02:40:00,54.7,48.3,30.01,South,179,7.6,7.6,79,0.00,,,0.00,VWS V14.00,2013-10-09 07:40:00,
2013-10-09 02:41:00,54.7,48.3,30.01,SSE,153,5.4,7.6,79,0.00,,,0.00,VWS V14.00,2013-10-09 07:41:00,
2013-10-09 02:42:00,54.7,48.6,30.01,SSE,167,3.6,5.4,80,0.00,,,0.00,VWS V14.00,2013-10-09 07:42:00,
2013-10-09 02:43:00,54.7,48.6,30.01,SSE,168,5.4,5.4,80,0.00,,,0.00,VWS V14.00,2013-10-09 07:43:00,
2013-10-09 02:44:00,54.7,48.6,30.01,South,180,2.7,6.3,80,0.00,,,0.00,VWS V14.00,2013-10-09 07:44:00,
2013-10-09 02:45:00,54.7,48.6,30.01,SSW,193,3.6,5.8,80,0.00,,,0.00,VWS V14.00,2013-10-09 07:45:00,
2013-10-09 02:46:00,54.7,48.6,30.01,SSW,204,2.7,5.4,80,0.00,,,0.00,VWS V14.00,2013-10-09 07:46:00,
2013-10-09 02:47:00,54.5,48.5,30.01,SSE,156,3.6,6.3,80,0.00,,,0.00,VWS V14.00,2013-10-09 07:47:00,
2013-10-09 02:48:00,54.5,48.5,30.01,ESE,117,3.6,4.0,80,0.00,,,0.00,VWS V14.00,2013-10-09 07:48:00,
2013-10-09 02:49:00,54.5,48.5,30.01,SE,145,3.6,4.9,80,0.00,,,0.00,VWS V14.00,2013-10-09 07:49:00,
2013-10-09 02:50:00,54.5,48.5,30.01,ESE,122,8.1,8.1,80,0.00,,,0.00,VWS V14.00,2013-10-09 07:50:00,
2013-10-09 02:51:00,54.5,48.5,30.01,South,175,5.8,8.1,80,0.00,,,0.00,VWS V14.00,2013-10-09 07:51:00,
2013-10-09 02:52:00,54.5,48.5,30.01,SSE,168,4.9,8.7,80,0.00,,,0.00,VWS V14.00,2013-10-09 07:52:00,
2013-10-09 02:53:00,54.5,48.5,30.01,ESE,113,3.6,4.9,80,0.00,,,0.00,VWS V14.00,2013-10-09 07:53:00,
2013-10-09 02:54:00,54.5,48.5,30.01,SE,128,5.4,5.4,80,0.00,,,0.00,VWS V14.00,2013-10-09 07:54:00,
2013-10-09 02:55:00,54.5,48.5,30.01,South,187,5.4,6.3,80,0.00,,,0.00,VWS V14.00,2013-10-09 07:55:00,
2013-10-09 02:56:00,54.5,48.5,30.01,SSW,205,4.9,5.8,80,0.00,,,0.00,VWS V14.00,2013-10-09 07:56:00,
2013-10-09 02:57:00,54.5,48.5,30.01,SSE,160,4.0,5.8,80,0.00,,,0.00,VWS V14.00,2013-10-09 07:57:00,
2013-10-09 02:58:00,54.5,48.5,30.01,SSW,193,2.7,4.0,80,0.00,,,0.00,VWS V14.00,2013-10-09 07:58:00,
2013-10-09 02:59:00,54.3,48.3,30.01,South,175,4.0,4.9,80,0.00,,,0.00,VWS V14.00,2013-10-09 07:59:00,
2013-10-09 03:00:00,54.3,48.3,30.01,SE,129,2.7,4.0,80,0.00,,,0.00,VWS V14.00,2013-10-09 08:00:00,
2013-10-09 03:01:00,54.3,48.3,30.01,SSE,168,3.6,3.6,80,0.00,,,0.00,VWS V14.00,2013-10-09 08:01:00,
2013-10-09 03:25:00,54.1,48.5,30.01,SSE,160,5.4,5.8,81,0.00,,,0.00,VWS V14.00,2013-10-09 08:25:00,
2013-10-09 03:31:00,54.1,48.5,30.01,SSE,157,2.7,5.8,81,0.00,,,0.00,VWS V14.00,2013-10-09 08:31:00,
2013-10-09 03:36:00,54.0,48.3,29.98,SSE,158,5.4,7.2,81,0.00,,,0.00,VWS V14.00,2013-10-09 08:36:00,
2013-10-09 03:42:00,54.0,48.6,29.98,SSE,154,4.9,5.4,82,0.00,,,0.00,VWS V14.00,2013-10-09 08:42:00,
2013-10-09 03:48:00,53.8,48.4,29.98,South,183,5.4,5.4,82,0.00,,,0.00,VWS V14.00,2013-10-09 08:48:00,
2013-10-09 03:53:00,53.6,48.2,29.98,SSW,198,6.3,6.3,82,0.00,,,0.00,VWS V14.00,2013-10-09 08:53:00,
2013-10-09 03:58:00,53.6,48.2,29.98,SSE,150,6.3,6.3,82,0.00,,,0.00,VWS V14.00,2013-10-09 08:58:00,
2013-10-09 04:04:00,53.8,48.4,29.98,SE,135,3.1,5.8,82,0.00,,,0.00,VWS V14.00,2013-10-09 09:04:00,
2013-10-09 04:10:00,53.6,48.6,30.01,ESE,114,2.7,5.8,83,0.00,,,0.00,VWS V14.00,2013-10-09 09:10:00,
2013-10-09 04:16:00,53.6,48.6,30.01,SE,140,4.9,5.8,83,0.00,,,0.00,VWS V14.00,2013-10-09 09:16:00,
2013-10-09 04:21:00,53.6,48.6,30.01,SE,143,3.6,3.6,83,0.00,,,0.00,VWS V14.00,2013-10-09 09:21:00,
2013-10-09 04:27:00,53.4,48.4,30.01,SSE,155,2.7,3.1,83,0.00,,,0.00,VWS V14.00,2013-10-09 09:27:00,
2013-10-09 04:32:00,53.2,48.2,30.01,SE,143,2.7,4.9,83,0.00,,,0.00,VWS V14.00,2013-10-09 09:32:00,
2013-10-09 04:37:00,53.1,48.4,30.01,SSE,154,4.9,6.3,84,0.00,,,0.00,VWS V14.00,2013-10-09 09:37:00,
2013-10-09 04:42:00,53.1,48.4,30.01,ESE,119,3.6,3.6,84,0.00,,,0.00,VWS V14.00,2013-10-09 09:42:00,
2013-10-09 04:47:00,53.1,48.4,30.01,ESE,119,2.7,3.6,84,0.00,,,0.00,VWS V14.00,2013-10-09 09:47:00,
2013-10-09 04:52:00,52.9,48.2,30.01,SSE,154,3.1,4.9,84,0.00,,,0.00,VWS V14.00,2013-10-09 09:52:00,
2013-10-09 04:57:00,52.9,48.5,30.01,ESE,111,3.6,4.9,85,0.00,,,0.00,VWS V14.00,2013-10-09 09:57:00,
2013-10-09 05:02:00,52.9,48.5,30.01,SE,135,3.6,4.0,85,0.00,,,0.00,VWS V14.00,2013-10-09 10:02:00,
2013-10-09 05:07:00,53.1,48.7,30.01,East,87,2.2,3.1,85,0.00,,,0.00,VWS V14.00,2013-10-09 10:07:00,
2013-10-09 05:13:00,53.1,48.7,30.01,SE,130,3.1,3.1,85,0.00,,,0.00,VWS V14.00,2013-10-09 10:13:00,
2013-10-09 05:19:00,53.1,49.0,30.01,East,94,0.0,3.1,86,0.00,,,0.00,VWS V14.00,2013-10-09 10:19:00,
2013-10-09 05:24:00,53.1,48.7,30.01,SSE,161,3.1,4.9,85,0.00,,,0.00,VWS V14.00,2013-10-09 10:24:00,
2013-10-09 05:30:00,52.9,48.5,30.01,East,90,0.0,3.6,85,0.00,,,0.00,VWS V14.00,2013-10-09 10:30:00,
2013-10-09 05:36:00,52.3,48.0,30.01,SE,132,0.0,2.7,85,0.00,,,0.00,VWS V14.00,2013-10-09 10:36:00,
2013-10-09 05:41:00,52.3,48.3,30.01,SE,125,2.7,3.6,86,0.00,,,0.00,VWS V14.00,2013-10-09 10:41:00,
2013-10-09 05:47:00,52.2,48.1,30.01,East,88,2.2,3.1,86,0.00,,,0.00,VWS V14.00,2013-10-09 10:47:00,
2013-10-09 05:52:00,52.2,48.4,30.01,SE,128,0.0,2.7,87,0.00,,,0.00,VWS V14.00,2013-10-09 10:52:00,
2013-10-09 05:57:00,52.5,49.1,30.01,East,99,3.6,5.4,88,0.00,,,0.00,VWS V14.00,2013-10-09 10:57:00,
2013-10-09 06:02:00,52.3,48.6,30.01,East,101,3.6,3.6,87,0.00,,,0.00,VWS V14.00,2013-10-09 11:02:00,
2013-10-09 06:08:00,52.3,48.9,30.01,SE,140,3.6,3.6,88,0.00,,,0.00,VWS V14.00,2013-10-09 11:08:00,
2013-10-09 06:13:00,52.5,49.1,30.01,SE,136,4.0,4.0,88,0.00,,,0.00,VWS V14.00,2013-10-09 11:13:00,
2013-10-09 06:18:00,52.5,49.1,30.01,SE,145,3.6,4.0,88,0.00,,,0.00,VWS V14.00,2013-10-09 11:18:00,
2013-10-09 06:23:00,52.5,49.1,30.01,SE,135,2.7,5.4,88,0.00,,,0.00,VWS V14.00,2013-10-09 11:23:00,
2013-10-09 06:28:00,52.2,48.7,30.01,SE,146,2.2,3.6,88,0.00,,,0.00,VWS V14.00,2013-10-09 11:28:00,
2013-10-09 06:33:00,52.2,48.7,30.01,SE,133,3.6,3.6,88,0.00,,,0.00,VWS V14.00,2013-10-09 11:33:00,
2013-10-09 06:38:00,52.2,48.7,30.01,ESE,110,4.9,4.9,88,0.00,,,0.00,VWS V14.00,2013-10-09 11:38:00,
2013-10-09 06:44:00,52.2,48.7,30.01,ESE,119,3.6,3.6,88,0.00,,,0.00,VWS V14.00,2013-10-09 11:44:00,
2013-10-09 06:49:00,52.0,48.8,30.01,SE,137,3.1,3.6,89,0.00,,,0.00,VWS V14.00,2013-10-09 11:49:00,
2013-10-09 06:54:00,52.0,48.8,30.01,SSE,156,3.1,3.6,89,0.00,,,0.00,VWS V14.00,2013-10-09 11:54:00,
2013-10-09 06:59:00,52.0,48.8,30.01,ESE,104,4.0,5.4,89,0.00,,,0.00,VWS V14.00,2013-10-09 11:59:00,
2013-10-09 07:04:00,52.2,49.3,30.01,SSE,149,0.0,3.6,90,0.00,,,0.00,VWS V14.00,2013-10-09 12:04:00,
2013-10-09 07:05:00,52.0,49.1,30.01,SE,132,5.4,5.8,90,0.00,,,0.00,VWS V14.00,2013-10-09 12:05:00,
2013-10-09 07:10:00,52.2,49.3,30.01,ESE,103,3.1,4.0,90,0.00,,,0.00,VWS V14.00,2013-10-09 12:10:00,
2013-10-09 07:16:00,52.3,49.8,30.01,SSE,153,4.0,5.8,91,0.00,,,0.00,VWS V14.00,2013-10-09 12:16:00,
2013-10-09 07:22:00,52.3,49.8,30.01,East,101,0.0,3.6,91,0.00,,,0.00,VWS V14.00,2013-10-09 12:22:00,
2013-10-09 07:28:00,52.2,49.3,30.01,East,84,2.7,4.0,90,0.00,,,0.00,VWS V14.00,2013-10-09 12:28:00,
2013-10-09 07:33:00,52.2,49.6,30.01,ESE,104,5.4,7.6,91,0.00,,,0.00,VWS V14.00,2013-10-09 12:33:00,
2013-10-09 07:39:00,52.0,49.4,30.01,ESE,120,4.0,6.3,91,0.00,,,0.00,VWS V14.00,2013-10-09 12:39:00,
2013-10-09 07:44:00,52.0,49.4,30.01,NE,52,6.3,6.3,91,0.00,,,0.00,VWS V14.00,2013-10-09 12:44:00,
2013-10-09 07:49:00,52.2,49.6,30.01,East,94,4.0,5.8,91,0.00,,,0.00,VWS V14.00,2013-10-09 12:49:00,
2013-10-09 07:54:00,52.0,49.4,30.01,ESE,110,0.0,3.1,91,0.00,,,0.00,VWS V14.00,2013-10-09 12:54:00,
2013-10-09 08:00:00,52.2,49.9,30.01,SE,124,2.7,6.3,92,0.00,,,0.00,VWS V14.00,2013-10-09 13:00:00,
2013-10-09 08:05:00,52.5,50.3,30.01,East,98,3.6,6.3,92,0.00,,,0.00,VWS V14.00,2013-10-09 13:05:00,
2013-10-09 08:10:00,52.7,50.5,30.01,ESE,114,2.7,3.6,92,0.00,,,0.00,VWS V14.00,2013-10-09 13:10:00,
2013-10-09 08:15:00,53.1,50.8,30.01,ENE,70,4.0,6.3,92,0.00,,,0.00,VWS V14.00,2013-10-09 13:15:00,
2013-10-09 08:21:00,53.4,51.2,30.01,SE,134,4.9,4.9,92,0.00,,,0.00,VWS V14.00,2013-10-09 13:21:00,
2013-10-09 08:26:00,54.0,51.4,30.01,ESE,117,4.9,5.4,91,0.00,,,0.00,VWS V14.00,2013-10-09 13:26:00,
2013-10-09 08:32:00,54.3,51.5,30.01,SSW,210,4.0,5.8,90,0.00,,,0.00,VWS V14.00,2013-10-09 13:32:00,
2013-10-09 08:38:00,54.7,51.5,30.01,SSE,154,8.3,8.3,89,0.00,,,0.00,VWS V14.00,2013-10-09 13:38:00,
2013-10-09 08:43:00,54.9,51.4,30.01,ESE,120,8.7,8.7,88,0.00,,,0.00,VWS V14.00,2013-10-09 13:43:00,
2013-10-09 08:48:00,55.2,51.4,30.01,South,183,8.7,8.7,87,0.00,,,0.00,VWS V14.00,2013-10-09 13:48:00,
2013-10-09 08:53:00,55.6,51.5,30.04,SE,139,5.8,8.3,86,0.00,,,0.00,VWS V14.00,2013-10-09 13:53:00,
2013-10-09 08:58:00,55.9,51.5,30.04,SSW,195,5.4,6.3,85,0.00,,,0.00,VWS V14.00,2013-10-09 13:58:00,
2013-10-09 09:04:00,56.5,52.0,30.04,ESE,106,7.6,13.6,85,0.00,,,0.00,VWS V14.00,2013-10-09 14:04:00,
2013-10-09 09:09:00,56.8,52.1,30.04,South,178,8.1,8.3,84,0.00,,,0.00,VWS V14.00,2013-10-09 14:09:00,
2013-10-09 09:14:00,57.2,52.1,30.04,SE,145,5.4,8.3,83,0.00,,,0.00,VWS V14.00,2013-10-09 14:14:00,
2013-10-09 09:20:00,57.7,52.3,30.04,SE,131,7.6,10.5,82,0.00,,,0.00,VWS V14.00,2013-10-09 14:20:00,
2013-10-09 09:25:00,58.1,52.3,30.04,ESE,123,10.5,15.0,81,0.00,,,0.00,VWS V14.00,2013-10-09 14:25:00,
2013-10-09 09:31:00,58.5,52.3,30.04,South,171,8.3,10.5,80,0.00,,,0.00,VWS V14.00,2013-10-09 14:31:00,
2013-10-09 09:36:00,58.8,52.3,30.04,SSE,151,8.7,17.0,79,0.00,,,0.00,VWS V14.00,2013-10-09 14:36:00,
2013-10-09 09:42:00,59.2,52.3,30.04,SSE,168,7.6,10.5,78,0.00,,,0.00,VWS V14.00,2013-10-09 14:42:00,
2013-10-09 09:48:00,59.5,52.3,30.04,SSE,150,6.3,11.0,77,0.00,,,0.00,VWS V14.00,2013-10-09 14:48:00,
2013-10-09 09:53:00,60.1,52.9,30.04,SE,132,5.8,12.8,77,0.00,,,0.00,VWS V14.00,2013-10-09 14:53:00,
2013-10-09 09:58:00,60.4,52.8,30.04,SSE,157,12.8,12.8,76,0.00,,,0.00,VWS V14.00,2013-10-09 14:58:00,
2013-10-09 10:03:00,61.0,52.7,30.04,South,175,5.4,9.6,74,0.00,,,0.00,VWS V14.00,2013-10-09 15:03:00,
2013-10-09 10:08:00,61.5,52.8,30.04,SSE,154,10.5,10.5,73,0.00,,,0.00,VWS V14.00,2013-10-09 15:08:00,
2013-10-09 10:14:00,62.1,52.9,30.04,SSE,153,10.5,11.0,72,0.00,,,0.00,VWS V14.00,2013-10-09 15:14:00,
2013-10-09 10:20:00,62.4,52.9,30.04,South,169,4.0,7.6,71,0.00,,,0.00,VWS V14.00,2013-10-09 15:20:00,
2013-10-09 10:25:00,62.8,52.9,30.04,SSW,196,7.6,10.1,70,0.00,,,0.00,VWS V14.00,2013-10-09 15:25:00,
2013-10-09 10:30:00,63.1,53.2,30.04,SE,139,8.7,11.0,70,0.00,,,0.00,VWS V14.00,2013-10-09 15:30:00,
2013-10-09 10:35:00,63.5,53.5,30.04,SE,135,6.3,8.7,70,0.00,,,0.00,VWS V14.00,2013-10-09 15:35:00,
2013-10-09 10:41:00,64.0,53.3,30.04,SSE,151,9.6,11.9,68,0.00,,,0.00,VWS V14.00,2013-10-09 15:41:00,
2013-10-09 10:46:00,64.6,53.4,30.04,South,190,5.8,8.7,67,0.00,,,0.00,VWS V14.00,2013-10-09 15:46:00,
2013-10-09 10:51:00,64.9,53.3,30.04,South,191,10.1,10.5,66,0.00,,,0.00,VWS V14.00,2013-10-09 15:51:00,
2013-10-09 10:56:00,65.5,53.0,30.04,SE,139,6.3,12.3,64,0.00,,,0.00,VWS V14.00,2013-10-09 15:56:00,
2013-10-09 11:01:00,65.7,53.2,30.04,SW,215,6.3,13.2,64,0.00,,,0.00,VWS V14.00,2013-10-09 16:01:00,
2013-10-09 11:06:00,66.0,53.5,30.04,South,177,5.8,8.3,64,0.00,,,0.00,VWS V14.00,2013-10-09 16:06:00,
2013-10-09 11:12:00,66.6,53.2,30.04,South,179,5.8,8.1,62,0.00,,,0.00,VWS V14.00,2013-10-09 16:12:00,
2013-10-09 11:17:00,66.9,53.5,30.04,South,173,7.6,10.5,62,0.00,,,0.00,VWS V14.00,2013-10-09 16:17:00,
2013-10-09 11:23:00,67.5,53.6,30.04,SSE,165,10.5,10.5,61,0.00,,,0.00,VWS V14.00,2013-10-09 16:23:00,
2013-10-09 11:28:00,67.8,53.9,30.04,South,170,4.9,8.3,61,0.00,,,0.00,VWS V14.00,2013-10-09 16:28:00,
2013-10-09 11:34:00,68.2,53.3,30.04,South,181,5.8,10.1,59,0.00,,,0.00,VWS V14.00,2013-10-09 16:34:00,
2013-10-09 11:39:00,68.4,53.0,30.04,SSW,207,5.8,8.3,58,0.00,,,0.00,VWS V14.00,2013-10-09 16:39:00,
2013-10-09 11:44:00,68.7,52.9,30.04,SE,141,9.2,10.5,57,0.00,,,0.00,VWS V14.00,2013-10-09 16:44:00,
2013-10-09 11:50:00,69.1,53.2,30.04,South,183,5.4,10.5,57,0.00,,,0.00,VWS V14.00,2013-10-09 16:50:00,
2013-10-09 11:56:00,69.4,53.6,30.04,SSW,193,3.1,5.8,57,0.00,,,0.00,VWS V14.00,2013-10-09 16:56:00,
2013-10-09 12:02:00,69.8,52.9,30.04,SSW,194,5.4,8.1,55,0.00,,,0.00,VWS V14.00,2013-10-09 17:02:00,
2013-10-09 12:07:00,70.3,52.9,30.04,SW,231,8.1,8.7,54,0.00,,,0.00,VWS V14.00,2013-10-09 17:07:00,
2013-10-09 12:13:00,70.9,51.9,30.04,South,191,8.1,10.5,51,0.00,,,0.00,VWS V14.00,2013-10-09 17:13:00,
2013-10-09 12:19:00,71.2,52.2,30.04,SSW,193,5.8,5.8,51,0.00,,,0.00,VWS V14.00,2013-10-09 17:19:00,
2013-10-09 12:25:00,71.6,52.0,30.04,SE,135,5.8,9.6,50,0.00,,,0.00,VWS V14.00,2013-10-09 17:25:00,
2013-10-09 12:30:00,71.8,52.2,30.04,SE,138,10.5,10.5,50,0.00,,,0.00,VWS V14.00,2013-10-09 17:30:00,
2013-10-09 12:35:00,72.1,51.9,30.04,SSE,160,8.1,12.3,49,0.00,,,0.00,VWS V14.00,2013-10-09 17:35:00,
2013-10-09 12:40:00,72.3,52.1,30.04,WSW,241,6.3,8.7,49,0.00,,,0.00,VWS V14.00,2013-10-09 17:40:00,
2013-10-09 12:45:00,72.7,52.4,30.04,SSE,165,3.6,8.3,49,0.00,,,0.00,VWS V14.00,2013-10-09 17:45:00,
2013-10-09 12:50:00,72.7,53.0,30.04,South,177,8.1,8.1,50,0.00,,,0.00,VWS V14.00,2013-10-09 17:50:00,
2013-10-09 12:55:00,73.2,52.9,30.04,South,169,3.1,5.4,49,0.00,,,0.00,VWS V14.00,2013-10-09 17:55:00,
2013-10-09 13:00:00,73.4,52.5,30.04,SSE,151,6.3,7.2,48,0.00,,,0.00,VWS V14.00,2013-10-09 18:00:00,
2013-10-09 13:05:00,73.6,52.1,30.04,SE,127,8.1,8.1,47,0.00,,,0.00,VWS V14.00,2013-10-09 18:05:00,
2013-10-09 13:11:00,73.6,52.1,30.04,SE,145,7.6,8.7,47,0.00,,,0.00,VWS V14.00,2013-10-09 18:11:00,
2013-10-09 13:16:00,73.9,52.5,30.04,South,177,3.1,5.8,47,0.00,,,0.00,VWS V14.00,2013-10-09 18:16:00,
2013-10-09 13:22:00,74.7,52.5,30.04,SSW,204,8.3,10.5,46,0.00,,,0.00,VWS V14.00,2013-10-09 18:22:00,
2013-10-09 13:27:00,74.8,52.7,30.04,ESE,117,6.3,10.1,46,0.00,,,0.00,VWS V14.00,2013-10-09 18:27:00,
2013-10-09 13:33:00,75.2,52.4,30.04,South,173,5.8,6.3,45,0.00,,,0.00,VWS V14.00,2013-10-09 18:33:00,
2013-10-09 13:39:00,75.4,52.6,30.01,South,179,7.6,10.1,45,0.00,,,0.00,VWS V14.00,2013-10-09 18:39:00,
2013-10-09 13:44:00,75.7,53.5,30.01,ESE,117,9.6,9.6,46,0.00,,,0.00,VWS V14.00,2013-10-09 18:44:00,
2013-10-09 13:50:00,75.9,53.1,30.01,SSW,192,7.6,8.7,45,0.00,,,0.00,VWS V14.00,2013-10-09 18:50:00,
2013-10-09 13:56:00,75.9,52.5,30.01,SSW,192,13.6,13.6,44,0.00,,,0.00,VWS V14.00,2013-10-09 18:56:00,
2013-10-09 14:01:00,75.9,52.5,30.01,SSW,201,5.4,10.1,44,0.00,,,0.00,VWS V14.00,2013-10-09 19:01:00,
2013-10-09 14:06:00,76.1,52.0,30.01,SSE,162,3.6,5.8,43,0.00,,,0.00,VWS V14.00,2013-10-09 19:06:00,
2013-10-09 14:11:00,76.5,52.3,30.01,SW,214,5.8,10.5,43,0.00,,,0.00,VWS V14.00,2013-10-09 19:11:00,
2013-10-09 14:16:00,76.8,52.7,30.01,South,172,5.8,7.6,43,0.00,,,0.00,VWS V14.00,2013-10-09 19:16:00,
2013-10-09 14:22:00,77.0,52.8,30.01,South,169,4.0,8.1,43,0.00,,,0.00,VWS V14.00,2013-10-09 19:22:00,
2013-10-09 14:28:00,77.0,52.8,30.01,South,184,6.3,10.1,43,0.00,,,0.00,VWS V14.00,2013-10-09 19:28:00,
2013-10-09 14:33:00,77.4,52.5,30.01,SSE,156,8.7,10.5,42,0.00,,,0.00,VWS V14.00,2013-10-09 19:33:00,
2013-10-09 14:38:00,77.5,53.3,30.01,SE,143,6.3,6.3,43,0.00,,,0.00,VWS V14.00,2013-10-09 19:38:00,
2013-10-09 14:44:00,77.7,52.2,30.01,SSE,165,8.3,10.1,41,0.00,,,0.00,VWS V14.00,2013-10-09 19:44:00,
2013-10-09 14:49:00,77.7,52.2,30.01,SW,223,5.4,8.3,41,0.00,,,0.00,VWS V14.00,2013-10-09 19:49:00,
2013-10-09 14:54:00,77.7,52.8,29.98,ESE,115,10.1,11.4,42,0.00,,,0.00,VWS V14.00,2013-10-09 19:54:00,
2013-10-09 14:59:00,77.9,53.0,29.98,SE,134,4.9,5.4,42,0.00,,,0.00,VWS V14.00,2013-10-09 19:59:00,
2013-10-09 15:04:00,77.9,52.3,29.98,South,175,5.8,9.6,41,0.00,,,0.00,VWS V14.00,2013-10-09 20:04:00,
2013-10-09 15:09:00,78.1,52.5,30.01,South,173,7.6,8.7,41,0.00,,,0.00,VWS V14.00,2013-10-09 20:09:00,
2013-10-09 15:14:00,78.4,53.5,30.01,South,179,5.4,5.8,42,0.00,,,0.00,VWS V14.00,2013-10-09 20:14:00,
2013-10-09 15:20:00,78.6,53.0,30.01,ESE,107,7.6,7.6,41,0.00,,,0.00,VWS V14.00,2013-10-09 20:20:00,
2013-10-09 15:25:00,78.4,52.8,29.98,SE,140,5.4,6.3,41,0.00,,,0.00,VWS V14.00,2013-10-09 20:25:00,
2013-10-09 15:31:00,78.6,52.3,29.98,SW,222,8.7,8.7,40,0.00,,,0.00,VWS V14.00,2013-10-09 20:31:00,
2013-10-09 15:36:00,78.6,52.3,29.98,SSE,161,8.3,10.5,40,0.00,,,0.00,VWS V14.00,2013-10-09 20:36:00,
2013-10-09 15:42:00,78.6,52.3,29.98,East,98,4.0,5.8,40,0.00,,,0.00,VWS V14.00,2013-10-09 20:42:00,
2013-10-09 15:47:00,78.4,52.1,29.98,South,176,11.0,11.0,40,0.00,,,0.00,VWS V14.00,2013-10-09 20:47:00,
2013-10-09 15:53:00,78.4,52.8,29.98,SSE,168,5.4,8.7,41,0.00,,,0.00,VWS V14.00,2013-10-09 20:53:00,
2013-10-09 15:59:00,78.4,52.1,29.98,SSE,153,4.0,10.1,40,0.00,,,0.00,VWS V14.00,2013-10-09 20:59:00,
2013-10-09 16:04:00,78.4,52.1,29.98,SW,220,7.6,7.6,40,0.00,,,0.00,VWS V14.00,2013-10-09 21:04:00,
2013-10-09 16:10:00,78.3,51.3,29.98,SSE,150,5.8,15.0,39,0.00,,,0.00,VWS V14.00,2013-10-09 21:10:00,
2013-10-09 16:15:00,78.3,52.0,29.98,South,187,5.8,8.3,40,0.00,,,0.00,VWS V14.00,2013-10-09 21:15:00,
2013-10-09 16:21:00,78.1,51.8,29.98,South,181,7.6,8.1,40,0.00,,,0.00,VWS V14.00,2013-10-09 21:21:00,
2013-10-09 16:27:00,77.7,51.5,29.98,South,175,5.8,8.3,40,0.00,,,0.00,VWS V14.00,2013-10-09 21:27:00,
2013-10-09 16:32:00,77.5,51.3,29.98,SE,141,10.5,10.5,40,0.00,,,0.00,VWS V14.00,2013-10-09 21:32:00,
2013-10-09 16:38:00,77.2,51.7,29.98,SE,124,7.6,8.3,41,0.00,,,0.00,VWS V14.00,2013-10-09 21:38:00,
2013-10-09 16:43:00,77.2,51.0,29.98,SSW,195,6.3,8.3,40,0.00,,,0.00,VWS V14.00,2013-10-09 21:43:00,
2013-10-09 16:48:00,77.2,51.7,29.98,SE,145,5.4,5.8,41,0.00,,,0.00,VWS V14.00,2013-10-09 21:48:00,
2013-10-09 16:53:00,77.0,51.5,29.98,SE,139,3.6,6.3,41,0.00,,,0.00,VWS V14.00,2013-10-09 21:53:00,
2013-10-09 16:58:00,76.6,51.8,29.98,SE,139,8.1,10.1,42,0.00,,,0.00,VWS V14.00,2013-10-09 21:58:00,
2013-10-09 17:04:00,76.8,51.4,29.98,SE,142,5.4,6.3,41,0.00,,,0.00,VWS V14.00,2013-10-09 22:04:00,
2013-10-09 17:09:00,76.8,51.4,29.98,SSE,156,11.9,13.2,41,0.00,,,0.00,VWS V14.00,2013-10-09 22:09:00,
2013-10-09 17:15:00,76.6,51.2,29.98,ESE,114,10.1,10.1,41,0.00,,,0.00,VWS V14.00,2013-10-09 22:15:00,
2013-10-09 17:21:00,76.5,51.0,29.98,SSE,150,0.0,3.1,41,0.00,,,0.00,VWS V14.00,2013-10-09 22:21:00,
2013-10-09 17:26:00,76.1,51.4,29.98,SE,129,8.3,8.3,42,0.00,,,0.00,VWS V14.00,2013-10-09 22:26:00,
2013-10-09 17:31:00,75.9,51.8,29.98,SSE,155,2.2,3.6,43,0.00,,,0.00,VWS V14.00,2013-10-09 22:31:00,
2013-10-09 17:37:00,75.9,51.2,29.98,East,94,7.6,8.1,42,0.00,,,0.00,VWS V14.00,2013-10-09 22:37:00,
2013-10-09 17:42:00,75.7,51.0,29.98,SE,132,7.6,8.3,42,0.00,,,0.00,VWS V14.00,2013-10-09 22:42:00,
2013-10-09 17:47:00,75.9,51.2,29.98,NE,49,3.6,6.7,42,0.00,,,0.00,VWS V14.00,2013-10-09 22:47:00,
2013-10-09 17:52:00,75.6,50.9,29.98,ESE,111,5.8,7.6,42,0.00,,,0.00,VWS V14.00,2013-10-09 22:52:00,
2013-10-09 17:58:00,75.4,50.7,29.98,ESE,118,6.3,6.3,42,0.00,,,0.00,VWS V14.00,2013-10-09 22:58:00,
2013-10-09 18:03:00,75.0,51.0,29.98,SSE,158,4.0,4.9,43,0.00,,,0.00,VWS V14.00,2013-10-09 23:03:00,
2013-10-09 18:09:00,75.0,51.0,29.98,South,169,3.1,6.3,43,0.00,,,0.00,VWS V14.00,2013-10-09 23:09:00,
2013-10-09 18:14:00,74.8,50.9,29.98,SE,138,2.7,8.7,43,0.00,,,0.00,VWS V14.00,2013-10-09 23:14:00,
2013-10-09 18:19:00,74.7,51.3,29.98,SE,132,4.0,5.4,44,0.00,,,0.00,VWS V14.00,2013-10-09 23:19:00,
2013-10-09 18:24:00,74.3,51.6,29.98,ESE,122,5.4,5.4,45,0.00,,,0.00,VWS V14.00,2013-10-09 23:24:00,
2013-10-09 18:29:00,74.1,51.4,29.98,SSE,151,5.4,6.3,45,0.00,,,0.00,VWS V14.00,2013-10-09 23:29:00,
2013-10-09 18:35:00,73.8,51.7,29.98,ESE,122,3.6,5.8,46,0.00,,,0.00,VWS V14.00,2013-10-09 23:35:00,
2013-10-09 18:40:00,73.4,51.4,29.98,SSE,154,4.0,5.8,46,0.00,,,0.00,VWS V14.00,2013-10-09 23:40:00,
2013-10-09 18:45:00,73.0,51.6,29.98,SE,130,0.0,4.0,47,0.00,,,0.00,VWS V14.00,2013-10-09 23:45:00,
2013-10-09 18:51:00,72.5,51.7,29.98,SE,127,8.7,8.7,48,0.00,,,0.00,VWS V14.00,2013-10-09 23:51:00,
2013-10-09 18:56:00,72.1,51.9,29.98,SSE,166,5.4,5.4,49,0.00,,,0.00,VWS V14.00,2013-10-09 23:56:00,
2013-10-09 19:02:00,71.8,52.2,29.98,SSE,154,0.0,4.0,50,0.00,,,0.00,VWS V14.00,2013-10-10 00:02:00,
2013-10-09 19:07:00,71.6,52.5,29.98,East,88,4.0,4.0,51,0.00,,,0.00,VWS V14.00,2013-10-10 00:07:00,
2013-10-09 19:13:00,71.1,52.6,29.98,ESE,116,0.0,3.6,52,0.00,,,0.00,VWS V14.00,2013-10-10 00:13:00,
2013-10-09 19:18:00,70.7,52.8,29.98,SSE,167,2.7,4.0,53,0.00,,,0.00,VWS V14.00,2013-10-10 00:18:00,
2013-10-09 19:23:00,70.5,53.1,29.98,SSE,164,5.4,5.4,54,0.00,,,0.00,VWS V14.00,2013-10-10 00:23:00,
2013-10-09 19:29:00,70.2,52.8,29.98,SE,143,0.0,2.7,54,0.00,,,0.00,VWS V14.00,2013-10-10 00:29:00,
2013-10-09 19:34:00,70.0,53.1,29.98,East,90,5.4,5.4,55,0.00,,,0.00,VWS V14.00,2013-10-10 00:34:00,
2013-10-09 19:40:00,69.6,53.2,29.98,SE,146,2.7,5.8,56,0.00,,,0.00,VWS V14.00,2013-10-10 00:40:00,
2013-10-09 19:45:00,69.4,53.1,29.98,South,173,2.7,2.7,56,0.00,,,0.00,VWS V14.00,2013-10-10 00:45:00,
2013-10-09 19:50:00,69.3,53.4,29.98,SSE,162,2.7,5.4,57,0.00,,,0.00,VWS V14.00,2013-10-10 00:50:00,
2013-10-09 19:56:00,69.1,53.2,29.98,ESE,104,4.9,6.7,57,0.00,,,0.00,VWS V14.00,2013-10-10 00:56:00,
2013-10-09 20:01:00,69.1,53.2,29.98,SSE,156,5.8,8.1,57,0.00,,,0.00,VWS V14.00,2013-10-10 01:01:00,
2013-10-09 20:06:00,68.9,53.1,29.98,SE,139,4.9,6.3,57,0.00,,,0.00,VWS V14.00,2013-10-10 01:06:00,
2013-10-09 20:12:00,68.5,53.2,29.98,ESE,117,3.6,4.0,58,0.00,,,0.00,VWS V14.00,2013-10-10 01:12:00,
2013-10-09 20:17:00,68.4,53.0,29.98,SE,135,3.1,6.3,58,0.00,,,0.00,VWS V14.00,2013-10-10 01:17:00,
2013-10-09 20:22:00,68.2,52.9,29.98,SSE,159,3.1,6.7,58,0.00,,,0.00,VWS V14.00,2013-10-10 01:22:00,
2013-10-09 20:28:00,68.0,53.2,29.98,SE,128,7.6,8.1,59,0.00,,,0.00,VWS V14.00,2013-10-10 01:28:00,
2013-10-09 20:33:00,67.8,53.0,29.98,SE,130,4.0,8.3,59,0.00,,,0.00,VWS V14.00,2013-10-10 01:33:00,
2013-10-09 20:38:00,67.6,52.8,29.98,SSE,158,6.3,6.3,59,0.00,,,0.00,VWS V14.00,2013-10-10 01:38:00,
2013-10-09 20:43:00,67.6,52.8,29.98,SE,144,3.6,4.0,59,0.00,,,0.00,VWS V14.00,2013-10-10 01:43:00,
2013-10-09 20:48:00,67.5,53.1,29.98,South,176,6.3,6.3,60,0.00,,,0.00,VWS V14.00,2013-10-10 01:48:00,
2013-10-09 20:54:00,67.3,52.9,29.98,SSE,158,3.1,6.7,60,0.00,,,0.00,VWS V14.00,2013-10-10 01:54:00,
2013-10-09 20:59:00,66.9,53.0,29.98,SSE,149,5.8,5.8,61,0.00,,,0.00,VWS V14.00,2013-10-10 01:59:00,
2013-10-09 21:05:00,66.7,52.9,29.98,SSW,197,5.4,5.8,61,0.00,,,0.00,VWS V14.00,2013-10-10 02:05:00,
2013-10-09 21:11:00,66.6,52.7,30.01,SE,131,5.4,6.3,61,0.00,,,0.00,VWS V14.00,2013-10-10 02:11:00,
2013-10-09 21:16:00,66.4,53.0,30.01,South,176,4.9,4.9,62,0.00,,,0.00,VWS V14.00,2013-10-10 02:16:00,
2013-10-09 21:22:00,66.0,53.1,30.01,South,183,4.9,6.3,63,0.00,,,0.00,VWS V14.00,2013-10-10 02:22:00,
2013-10-09 21:27:00,65.8,52.9,30.01,SSW,192,3.1,4.0,63,0.00,,,0.00,VWS V14.00,2013-10-10 02:27:00,
2013-10-09 21:32:00,65.7,53.2,30.01,SE,135,7.2,7.2,64,0.00,,,0.00,VWS V14.00,2013-10-10 02:32:00,
2013-10-09 21:38:00,65.5,53.0,30.01,South,170,2.2,3.6,64,0.00,,,0.00,VWS V14.00,2013-10-10 02:38:00,
2013-10-09 21:43:00,65.3,52.8,30.01,SSW,199,2.7,5.8,64,0.00,,,0.00,VWS V14.00,2013-10-10 02:43:00,
2013-10-09 21:48:00,64.9,52.9,30.01,South,174,4.9,5.8,65,0.00,,,0.00,VWS V14.00,2013-10-10 02:48:00,
2013-10-09 21:53:00,64.9,52.9,30.01,South,169,0.0,5.8,65,0.00,,,0.00,VWS V14.00,2013-10-10 02:53:00,
2013-10-09 21:59:00,64.8,52.7,30.01,SE,138,4.0,5.8,65,0.00,,,0.00,VWS V14.00,2013-10-10 02:59:00,
2013-10-09 22:04:00,64.6,53.0,30.01,South,174,4.0,4.0,66,0.00,,,0.00,VWS V14.00,2013-10-10 03:04:00,
2013-10-09 22:09:00,64.6,53.0,30.01,SE,131,6.3,6.3,66,0.00,,,0.00,VWS V14.00,2013-10-10 03:09:00,
2013-10-09 22:15:00,64.2,53.0,30.01,SE,135,8.1,8.1,67,0.00,,,0.00,VWS V14.00,2013-10-10 03:15:00,
2013-10-09 22:20:00,64.2,53.0,30.01,SE,124,7.6,7.6,67,0.00,,,0.00,VWS V14.00,2013-10-10 03:20:00,
2013-10-09 22:25:00,63.9,52.7,30.01,SSE,158,3.6,4.0,67,0.00,,,0.00,VWS V14.00,2013-10-10 03:25:00,
2013-10-09 22:31:00,63.7,52.9,30.01,SSE,160,2.7,4.9,68,0.00,,,0.00,VWS V14.00,2013-10-10 03:31:00,
2013-10-09 22:36:00,63.5,52.8,30.01,SE,139,5.4,5.8,68,0.00,,,0.00,VWS V14.00,2013-10-10 03:36:00,
2013-10-09 22:42:00,63.5,52.8,30.01,SSE,159,3.6,5.8,68,0.00,,,0.00,VWS V14.00,2013-10-10 03:42:00,
2013-10-09 22:47:00,63.3,52.6,30.01,SE,138,6.3,6.3,68,0.00,,,0.00,VWS V14.00,2013-10-10 03:47:00,
2013-10-09 22:53:00,63.1,52.4,30.01,ESE,111,5.8,5.8,68,0.00,,,0.00,VWS V14.00,2013-10-10 03:53:00,
2013-10-09 22:59:00,63.1,52.8,30.01,SSE,147,3.1,3.1,69,0.00,,,0.00,VWS V14.00,2013-10-10 03:59:00,
2013-10-09 23:01:00,63.0,52.6,30.01,SE,144,4.9,5.8,69,0.00,,,0.00,VWS V14.00,2013-10-10 04:01:00,
2013-10-09 23:02:00,63.0,52.6,30.01,SE,129,4.0,5.8,69,0.00,,,0.00,VWS V14.00,2013-10-10 04:02:00,
2013-10-09 23:03:00,63.0,52.6,30.01,SSE,155,4.0,5.8,69,0.00,,,0.00,VWS V14.00,2013-10-10 04:03:00,
2013-10-09 23:05:00,63.0,52.6,30.01,SE,139,6.3,6.3,69,0.00,,,0.00,VWS V14.00,2013-10-10 04:05:00,
2013-10-09 23:06:00,63.1,52.8,30.01,SSW,195,4.9,6.3,69,0.00,,,0.00,VWS V14.00,2013-10-10 04:06:00,
2013-10-09 23:07:00,63.0,52.6,30.01,SSW,193,2.7,5.4,69,0.00,,,0.00,VWS V14.00,2013-10-10 04:07:00,
2013-10-09 23:12:00,63.0,52.6,30.01,SSE,157,4.0,5.4,69,0.00,,,0.00,VWS V14.00,2013-10-10 04:12:00,
2013-10-09 23:18:00,63.0,52.6,30.01,South,178,3.6,6.3,69,0.00,,,0.00,VWS V14.00,2013-10-10 04:18:00,
2013-10-09 23:23:00,62.6,52.3,30.01,SSE,163,6.3,6.3,69,0.00,,,0.00,VWS V14.00,2013-10-10 04:23:00,
2013-10-09 23:29:00,62.4,52.5,30.01,SSE,149,5.4,5.4,70,0.00,,,0.00,VWS V14.00,2013-10-10 04:29:00,
2013-10-09 23:35:00,62.2,52.3,30.01,SSE,148,4.0,4.0,70,0.00,,,0.00,VWS V14.00,2013-10-10 04:35:00,
2013-10-09 23:40:00,62.2,52.7,30.01,ESE,113,4.0,4.0,71,0.00,,,0.00,VWS V14.00,2013-10-10 04:40:00,
2013-10-09 23:45:00,61.9,52.4,30.01,SSE,156,3.6,4.9,71,0.00,,,0.00,VWS V14.00,2013-10-10 04:45:00,
2013-10-09 23:50:00,61.7,52.2,30.01,South,176,3.1,3.6,71,0.00,,,0.00,VWS V14.00,2013-10-10 04:50:00,
2013-10-09 23:56:00,61.7,52.6,30.01,SE,139,5.8,5.8,72,0.00,,,0.00,VWS V14.00,2013-10-10 04:56:00,